Weather History for Kaneohe MCBH, HI

Change the Weather History Date:

Tuesday, August 12, 2014

  Actual Average Record
Temperature  
Mean Temperature 81 °F -  
Max Temperature 89 °F 81 °F 89 °F (2014)
Min Temperature 73 °F 73 °F 72 °F (1997)
Cooling Degree Days 16    
Growing Degree Days 31 (Base 50)    
Moisture  
Dew Point 70 °F    
Average Humidity 77    
Maximum Humidity 95    
Minimum Humidity 52    
Precipitation  
Precipitation 0.19 in - - ()
Sea Level Pressure  
Sea Level Pressure 30.01 in    
Wind  
Wind Speed 3 mph (NE)    
Max Wind Speed 9 mph    
Max Gust Speed -    
Visibility 7 miles    
Events Rain    
Averages and records for this station are not official NWS values.
T = Trace of Precipitation, MM = Missing Value Source: NWS Daily Summary

Daily Weather History Graph

Daily Weather History Graph

Search for Another Location

Airport:

Trip Planner

Search our weather history database for the weather conditions in past years. The results will help you decide how hot, cold, wet, or windy it might be!

Date:

Astronomy

Aug. 12, 2014 Rise Set
Actual Time 6:08 AM HST 7:03 PM HST
Civil Twilight 5:45 AM HST 7:26 PM HST
Nautical Twilight 5:17 AM HST 7:53 PM HST
Astronomical Twilight 4:49 AM HST 8:21 PM HST
Moon 8:46 PM HST (8/12) 8:15 AM HST (8/12)
Length of Visible Light 13h 41m
Length of Day
12h 54m
Waning Gibbous, 93% of the Moon is Illuminated
Aug 12
Waning Gibbous
Aug 17
Last Quarter
Aug 25
New
Sep 2
First Quarter
Sep 8
Full

Hourly Weather History & Observations

Time (HST) Temp. Heat Index Dew Point Humidity Pressure Visibility Wind Dir Wind Speed Gust Speed Precip Events Conditions
12:57 AM 73.4 °F - 69.1 °F 86% 30.04 in 8.0 mi Calm Calm - N/A   Partly Cloudy
1:57 AM 73.4 °F - 68.0 °F 83% 30.02 in 7.0 mi Calm Calm - N/A   Clear
2:25 AM 73.4 °F - 69.8 °F 88% 30.02 in 6.2 mi Calm Calm - N/A   Mostly Cloudy
2:57 AM 73.4 °F - 69.1 °F 86% 30.00 in 7.0 mi Calm Calm - N/A   Scattered Clouds
3:40 AM 73.4 °F - 69.8 °F 88% 30.01 in 6.2 mi Calm Calm - N/A   Mostly Cloudy
3:57 AM 73.4 °F - 70.0 °F 89% 30.00 in 9.0 mi Calm Calm - N/A   Scattered Clouds
4:28 AM 73.4 °F - 69.8 °F 88% 30.01 in 6.2 mi Calm Calm - N/A   Mostly Cloudy
4:57 AM 73.4 °F - 70.0 °F 89% 29.99 in 9.0 mi Calm Calm - N/A   Mostly Cloudy
5:20 AM 73.4 °F - 69.8 °F 88% 30.01 in 6.2 mi Calm Calm - N/A   Mostly Cloudy
5:42 AM 73.4 °F - 69.8 °F 88% 30.01 in 6.2 mi Calm Calm - N/A   Mostly Cloudy
5:57 AM 73.4 °F - 70.0 °F 89% 30.00 in 9.0 mi Calm Calm - N/A   Mostly Cloudy
6:06 AM 73.4 °F - 69.8 °F 88% 30.02 in 9.0 mi Calm Calm - N/A   Mostly Cloudy
7:57 AM 73.4 °F - 72.0 °F 95% 30.03 in 7.0 mi Calm Calm - N/A   Mostly Cloudy
8:05 AM 77.0 °F - 71.6 °F 83% 30.04 in 6.2 mi Calm Calm - N/A   Mostly Cloudy
8:43 AM 77.0 °F - 71.6 °F 83% 30.04 in 6.2 mi NNW 3.5 mph - N/A   Scattered Clouds
8:57 AM 77.0 °F - 71.1 °F 82% 30.03 in 7.0 mi NNE 6.9 mph - N/A   Scattered Clouds
9:57 AM 84.2 °F 89.9 °F 72.0 °F 67% 30.03 in 7.0 mi NNE 8.1 mph - N/A   Clear
10:57 AM 86.0 °F 91.5 °F 71.1 °F 61% 30.02 in 8.0 mi NE 8.1 mph - N/A   Clear
11:57 AM 86.0 °F 90.7 °F 70.0 °F 59% 30.01 in 9.0 mi NNE 9.2 mph - N/A   Clear
12:57 PM 87.8 °F 92.6 °F 70.0 °F 55% 30.00 in 8.0 mi NE 9.2 mph - N/A   Clear
1:57 PM 89.6 °F 94.7 °F 70.0 °F 52% 29.99 in 8.0 mi NE 9.2 mph - N/A   Overcast
2:57 PM 89.6 °F 94.7 °F 70.0 °F 52% 29.98 in 8.0 mi NE 9.2 mph - N/A   Overcast
3:57 PM 89.6 °F 94.7 °F 70.0 °F 52% 29.96 in 8.0 mi NE 8.1 mph - N/A   Overcast
4:57 PM 87.8 °F 92.6 °F 70.0 °F 55% 29.96 in 7.0 mi East 6.9 mph - N/A   Overcast
5:57 PM 84.2 °F 88.4 °F 70.0 °F 62% 29.96 in 7.0 mi ENE 9.2 mph - N/A   Overcast
6:57 PM 80.6 °F 83.6 °F 69.1 °F 68% 29.98 in 6.0 mi ENE 4.6 mph - N/A Rain Light Rain Showers
7:20 PM 78.8 °F - 69.8 °F 74% 30.00 in 6.0 mi North 8.1 mph - 0.00 in Rain Light Rain
7:57 PM 78.8 °F - 69.1 °F 72% 29.99 in 7.0 mi North 6.9 mph - 0.00 in   Overcast
8:13 PM 77.0 °F - 69.8 °F 78% 30.01 in - NE 9.2 mph - 0.03 in   Haze
8:20 PM 77.0 °F - 69.8 °F 78% 30.01 in 5.0 mi Calm Calm - 0.06 in Rain Light Rain
8:37 PM 77.0 °F - 69.8 °F 78% 30.01 in 5.0 mi East 4.6 mph - 0.10 in Rain Light Rain
8:57 PM 77.0 °F - 70.0 °F 79% 30.01 in 5.0 mi East 4.6 mph - 0.10 in Rain Light Rain
9:20 PM 77.0 °F - 69.8 °F 78% 30.03 in 6.2 mi ESE 5.8 mph - 0.00 in   Overcast
9:26 PM 77.0 °F - 69.8 °F 78% 30.03 in 6.2 mi ESE 4.6 mph - 0.00 in   Overcast
9:57 PM 77.0 °F - 70.0 °F 79% 30.03 in 7.0 mi East 4.6 mph - 0.00 in   Overcast
10:57 PM 77.0 °F - 71.1 °F 82% 30.03 in 7.0 mi Calm Calm - 0.08 in   Overcast
11:57 PM 77.0 °F - 72.0 °F 84% 30.01 in 7.0 mi West 4.6 mph - 0.01 in   Overcast